QPF
0.01 0.00 0.01 0.01 0.00 0.00 0.01 0.01 0.00 0.01 0.01 0.02 0.01 0.01 0.01 0.01 0.01 0.01 0.02 0.01 0.02 0.02 0.04 0.05 0.07 0.06 0.04 0.04 0.04 0.04 0.03 0.03 0.04 0.03 0.02 0.03 0.03 0.04 0.05 0.08 0.10 0.06 0.05 0.05 0.05 0.04 0.05 0.06 0.07
0.01 0.01 0.01 0.00 0.00 0.01 0.01 0.01 0.00 0.00 0.01 0.01 0.00 0.00 0.00 0.01 0.01 0.01 0.01 0.01 0.01 0.01 0.02 0.03 0.06 0.05 0.03 0.02 0.02 0.02 0.03 0.02 0.03 0.03 0.03 0.03 0.05 0.04 0.03 0.05 0.08 0.06 0.05 0.05 0.06 0.06 0.06 0.07 0.07
0.00 0.01 0.01 0.00 0.00 0.02 0.01 0.01 0.00 0.00 0.01 0.00 0.00 0.00 0.00 0.00 0.01 0.01 0.01 0.01 0.00 0.01 0.02 0.03 0.05 0.06 0.04 0.02 0.02 0.03 0.03 0.02 0.02 0.03 0.04 0.03 0.04 0.04 0.04 0.04 0.06 0.06 0.05 0.05 0.05 0.06 0.06 0.06 0.05
0.01 0.01 0.00 0.00 0.00 0.01 0.01 0.01 0.00 0.00 0.01 0.01 0.00 0.00 0.00 0.00 0.00 0.00 0.01 0.01 0.00 0.01 0.01 0.02 0.04 0.06 0.06 0.05 0.05 0.05 0.05 0.04 0.03 0.03 0.04 0.03 0.03 0.04 0.05 0.05 0.05 0.07 0.09 0.07 0.05 0.05 0.05 0.07 0.05
0.01 0.00 0.00 0.00 0.00 0.00 0.01 0.01 0.01 0.01 0.02 0.01 0.00 0.00 0.00 0.00 0.00 0.00 0.00 0.01 0.01 0.01 0.01 0.02 0.03 0.04 0.04 0.04 0.05 0.05 0.04 0.03 0.03 0.02 0.03 0.03 0.02 0.03 0.04 0.05 0.05 0.06 0.09 0.08 0.07 0.06 0.06 0.07 0.06
0.00 0.00 0.00 0.00 0.01 0.01 0.01 0.00 0.01 0.01 0.02 0.01 0.00 0.00 0.00 0.01 0.01 0.00 0.00 0.01 0.01 0.01 0.01 0.01 0.03 0.05 0.04 0.03 0.04 0.04 0.03 0.02 0.01 0.01 0.01 0.02 0.03 0.02 0.02 0.03 0.03 0.03 0.03 0.03 0.04 0.06 0.06 0.05 0.05
0.00 0.00 0.00 0.01 0.01 0.01 0.01 0.00 0.00 0.00 0.00 0.00 0.00 0.00 0.00 0.01 0.01 0.00 0.00 0.00 0.00 0.00 0.01 0.01 0.01 0.03 0.04 0.03 0.04 0.04 0.04 0.03 0.02 0.01 0.02 0.02 0.03 0.03 0.02 0.02 0.02 0.02 0.03 0.03 0.04 0.05 0.05 0.05 0.06
0.00 0.00 0.00 0.01 0.01 0.01 0.01 0.01 0.00 0.00 0.00 0.00 0.00 0.00 0.00 0.00 0.01 0.01 0.01 0.01 0.01 0.01 0.01 0.00 0.00 0.00 0.01 0.02 0.03 0.03 0.04 0.04 0.03 0.02 0.03 0.03 0.02 0.01 0.01 0.02 0.02 0.02 0.03 0.05 0.05 0.04 0.03 0.04 0.06
0.00 0.00 0.00 0.00 0.01 0.01 0.01 0.01 0.00 0.00 0.00 0.00 0.00 0.00 0.00 0.00 0.00 0.00 0.00 0.01 0.01 0.01 0.01 0.00 0.00 0.00 0.00 0.00 0.01 0.02 0.02 0.03 0.03 0.02 0.03 0.01 0.00 0.00 0.00 0.02 0.02 0.03 0.04 0.06 0.06 0.03 0.02 0.02 0.03
0.00 0.00 0.01 0.00 0.00 0.00 0.00 0.01 0.01 0.00 0.00 0.00 0.00 0.00 0.00 0.01 0.01 0.01 0.01 0.01 0.00 0.01 0.01 0.00 0.00 0.00 0.00 0.00 0.00 0.00 0.01 0.01 0.01 0.01 0.01 0.01 0.00 0.00 0.00 0.01 0.02 0.02 0.03 0.03 0.04 0.02 0.01 0.01 0.00
0.00 0.00 0.01 0.00 0.00 0.00 0.00 0.00 0.01 0.01 0.00 0.00 0.00 0.00 0.00 0.00 0.00 0.00 0.00 0.01 0.00 0.00 0.00 0.00 0.00 0.00 0.00 0.00 0.00 0.00 0.00 0.00 0.01 0.02 0.01 0.00 0.00 0.00 0.00 0.00 0.01 0.01 0.02 0.01 0.01 0.01 0.00 0.00 0.00
0.00 0.00 0.00 0.00 0.00 0.00 0.00 0.00 0.00 0.01 0.01 0.00 0.00 0.00 0.00 0.00 0.00 0.00 0.00 0.00 0.00 0.00 0.00 0.00 0.00 0.00 0.00 0.00 0.00 0.00 0.01 0.01 0.01 0.01 0.00 0.00 0.00 0.00 0.00 0.00 0.01 0.00 0.01 0.01 0.01 0.01 0.00 0.00 0.00
0.00 0.00 0.00 0.01 0.00 0.00 0.00 0.00 0.00 0.01 0.00 0.00 0.00 0.00 0.00 0.00 0.01 0.01 0.00 0.00 0.00 0.00 0.00 0.00 0.00 0.00 0.00 0.01 0.00 0.00 0.01 0.01 0.01 0.00 0.00 0.00 0.00 0.01 0.01 0.01 0.00 0.00 0.00 0.01 0.01 0.01 0.00 0.00 0.00
0.01 0.01 0.00 0.00 0.01 0.01 0.01 0.01 0.00 0.00 0.00 0.00 0.01 0.01 0.01 0.01 0.01 0.01 0.01 0.00 0.00 0.00 0.01 0.01 0.01 0.00 0.00 0.01 0.00 0.00 0.01 0.00 0.00 0.00 0.00 0.00 0.00 0.00 0.01 0.00 0.00 0.00 0.00 0.00 0.01 0.01 0.01 0.00 0.00
0.01 0.01 0.01 0.00 0.00 0.00 0.01 0.01 0.01 0.00 0.01 0.01 0.01 0.01 0.02 0.03 0.02 0.01 0.01 0.01 0.00 0.00 0.00 0.02 0.01 0.01 0.00 0.01 0.01 0.01 0.01 0.00 0.00 0.00 0.00 0.00 0.00 0.00 0.00 0.00 0.00 0.00 0.00 0.00 0.00 0.01 0.01 0.01 0.01
0.01 0.01 0.01 0.01 0.01 0.01 0.01 0.01 0.02 0.01 0.01 0.02 0.02 0.02 0.02 0.02 0.01 0.00 0.00 0.01 0.01 0.00 0.00 0.01 0.01 0.01 0.01 0.01 0.01 0.01 0.01 0.01 0.01 0.01 0.01 0.01 0.00 0.00 0.00 0.00 0.01 0.01 0.00 0.00 0.01 0.01 0.02 0.02 0.01
0.01 0.01 0.01 0.01 0.01 0.01 0.01 0.01 0.02 0.02 0.02 0.02 0.02 0.02 0.03 0.04 0.02 0.01 0.00 0.01 0.01 0.01 0.01 0.01 0.01 0.01 0.01 0.01 0.01 0.01 0.02 0.02 0.03 0.01 0.01 0.01 0.01 0.01 0.01 0.00 0.01 0.01 0.01 0.02 0.02 0.03 0.02 0.01 0.01
0.00 0.01 0.01 0.01 0.01 0.01 0.01 0.01 0.02 0.02 0.02 0.02 0.02 0.01 0.02 0.03 0.04 0.03 0.01 0.01 0.02 0.02 0.02 0.02 0.01 0.01 0.02 0.01 0.01 0.01 0.01 0.02 0.03 0.02 0.01 0.01 0.01 0.01 0.00 0.01 0.01 0.01 0.02 0.02 0.03 0.03 0.02 0.01 0.01
0.01 0.01 0.01 0.01 0.01 0.00 0.01 0.01 0.02 0.03 0.02 0.02 0.01 0.01 0.01 0.01 0.02 0.04 0.04 0.03 0.04 0.04 0.03 0.02 0.02 0.01 0.01 0.01 0.01 0.01 0.01 0.01 0.02 0.02 0.01 0.01 0.01 0.01 0.01 0.01 0.01 0.02 0.02 0.01 0.01 0.02 0.02 0.01 0.01
0.01 0.01 0.01 0.01 0.01 0.01 0.01 0.01 0.02 0.03 0.02 0.01 0.01 0.01 0.01 0.00 0.00 0.01 0.02 0.02 0.03 0.03 0.03 0.03 0.02 0.02 0.01 0.01 0.01 0.01 0.01 0.01 0.02 0.02 0.02 0.02 0.01 0.00 0.00 0.01 0.01 0.01 0.01 0.01 0.01 0.01 0.01 0.01 0.01
0.01 0.01 0.01 0.01 0.01 0.01 0.01 0.01 0.01 0.02 0.01 0.01 0.01 0.02 0.01 0.01 0.01 0.01 0.01 0.01 0.03 0.04 0.04 0.03 0.02 0.02 0.02 0.01 0.01 0.01 0.02 0.02 0.02 0.02 0.02 0.03 0.01 0.00 0.00 0.00 0.01 0.01 0.01 0.02 0.01 0.01 0.01 0.01 0.01
0.01 0.01 0.01 0.01 0.02 0.01 0.02 0.02 0.02 0.01 0.01 0.02 0.03 0.03 0.02 0.02 0.02 0.01 0.01 0.01 0.02 0.04 0.05 0.05 0.03 0.02 0.02 0.02 0.01 0.01 0.00 0.01 0.01 0.01 0.02 0.02 0.01 0.01 0.00 0.00 0.01 0.01 0.01 0.03 0.03 0.02 0.02 0.02 0.01
0.01 0.01 0.02 0.02 0.02 0.01 0.02 0.02 0.02 0.01 0.02 0.03 0.03 0.02 0.02 0.02 0.02 0.02 0.02 0.02 0.02 0.03 0.04 0.06 0.04 0.03 0.02 0.02 0.02 0.01 0.00 0.00 0.01 0.01 0.01 0.02 0.01 0.01 0.01 0.01 0.01 0.01 0.01 0.02 0.02 0.02 0.02 0.02 0.02
0.02 0.03 0.03 0.02 0.02 0.01 0.01 0.01 0.01 0.01 0.02 0.03 0.04 0.03 0.02 0.02 0.02 0.02 0.02 0.03 0.02 0.03 0.04 0.05 0.06 0.04 0.03 0.02 0.02 0.01 0.01 0.01 0.01 0.00 0.01 0.01 0.01 0.01 0.01 0.01 0.01 0.01 0.01 0.02 0.02 0.02 0.03 0.04 0.03
0.02 0.03 0.03 0.02 0.02 0.01 0.01 0.00 0.01 0.01 0.01 0.01 0.02 0.03 0.02 0.03 0.02 0.02 0.02 0.02 0.02 0.02 0.04 0.05 0.07 0.07 0.05 0.03 0.02 0.02 0.01 0.01 0.01 0.01 0.01 0.01 0.01 0.01 0.01 0.01 0.01 0.01 0.01 0.02 0.02 0.01 0.02 0.02 0.03
0.01 0.02 0.03 0.02 0.01 0.01 0.00 0.01 0.02 0.01 0.01 0.01 0.01 0.01 0.01 0.02 0.01 0.01 0.01 0.01 0.02 0.02 0.03 0.04 0.06 0.08 0.07 0.05 0.03 0.02 0.02 0.02 0.02 0.02 0.02 0.01 0.01 0.01 0.01 0.01 0.00 0.01 0.01 0.02 0.02 0.01 0.01 0.01 0.01
0.01 0.02 0.02 0.02 0.01 0.01 0.00 0.00 0.01 0.01 0.00 0.00 0.00 0.01 0.02 0.01 0.00 0.00 0.00 0.01 0.01 0.02 0.03 0.04 0.04 0.05 0.06 0.06 0.05 0.03 0.02 0.02 0.01 0.02 0.02 0.01 0.01 0.01 0.01 0.01 0.00 0.00 0.00 0.01 0.02 0.02 0.01 0.01 0.01
0.01 0.02 0.02 0.02 0.02 0.01 0.00 0.00 0.00 0.00 0.00 0.00 0.00 0.01 0.02 0.01 0.00 0.00 0.00 0.00 0.01 0.01 0.02 0.03 0.04 0.04 0.04 0.04 0.05 0.05 0.04 0.04 0.03 0.02 0.01 0.01 0.01 0.01 0.01 0.01 0.00 0.00 0.00 0.01 0.02 0.02 0.02 0.01 0.01
0.01 0.02 0.03 0.02 0.02 0.01 0.00 0.00 0.00 0.00 0.00 0.00 0.00 0.01 0.01 0.01 0.01 0.00 0.00 0.00 0.00 0.01 0.02 0.02 0.03 0.04 0.04 0.03 0.03 0.04 0.03 0.04 0.04 0.03 0.02 0.01 0.01 0.01 0.01 0.01 0.01 0.01 0.00 0.00 0.01 0.02 0.01 0.01 0.02
0.01 0.01 0.02 0.03 0.02 0.01 0.01 0.00 0.00 0.00 0.00 0.00 0.01 0.00 0.01 0.01 0.01 0.00 0.00 0.00 0.00 0.01 0.01 0.00 0.01 0.02 0.03 0.03 0.03 0.02 0.02 0.03 0.03 0.03 0.02 0.02 0.02 0.02 0.02 0.02 0.01 0.01 0.00 0.00 0.01 0.02 0.02 0.02 0.03
MSLP
1008.62 1009.72 1011.04 1012.38 1013.60 1014.53 1015.11 1015.30 1015.17 1014.81 1014.37 1013.96 1013.66 1013.50 1013.46 1013.47 1013.47 1013.38 1013.16 1012.82 1012.41 1011.98 1011.59 1011.31 1011.17 1011.15 1011.23 1011.36 1011.51 1011.63 1011.71 1011.76 1011.80 1011.87 1011.97 1012.14 1012.37 1012.64 1012.93 1013.21 1013.45 1013.63 1013.74 1013.78 1013.76 1013.71 1013.64 1013.57 1013.53
1009.38 1010.63 1011.99 1013.30 1014.39 1015.12 1015.45 1015.37 1014.98 1014.40 1013.79 1013.28 1012.93 1012.79 1012.79 1012.88 1012.96 1012.94 1012.80 1012.52 1012.16 1011.77 1011.43 1011.20 1011.11 1011.15 1011.28 1011.47 1011.66 1011.83 1011.95 1012.03 1012.10 1012.18 1012.30 1012.47 1012.69 1012.94 1013.20 1013.44 1013.64 1013.78 1013.87 1013.89 1013.87 1013.82 1013.76 1013.70 1013.67
1010.06 1011.38 1012.73 1013.94 1014.86 1015.37 1015.46 1015.16 1014.57 1013.86 1013.18 1012.64 1012.33 1012.23 1012.30 1012.45 1012.59 1012.62 1012.51 1012.27 1011.94 1011.60 1011.31 1011.13 1011.10 1011.20 1011.38 1011.61 1011.83 1012.02 1012.16 1012.26 1012.34 1012.43 1012.56 1012.72 1012.92 1013.15 1013.37 1013.57 1013.73 1013.85 1013.91 1013.94 1013.93 1013.91 1013.88 1013.86 1013.85
1010.65 1011.98 1013.26 1014.33 1015.05 1015.35 1015.24 1014.78 1014.09 1013.34 1012.67 1012.19 1011.95 1011.93 1012.06 1012.25 1012.40 1012.44 1012.34 1012.11 1011.81 1011.51 1011.28 1011.17 1011.19 1011.33 1011.55 1011.80 1012.03 1012.22 1012.35 1012.44 1012.52 1012.60 1012.72 1012.88 1013.06 1013.26 1013.45 1013.62 1013.76 1013.86 1013.93 1013.98 1014.01 1014.04 1014.06 1014.08 1014.11
1011.19 1012.47 1013.62 1014.51 1015.04 1015.16 1014.90 1014.35 1013.64 1012.93 1012.35 1011.97 1011.83 1011.88 1012.06 1012.26 1012.41 1012.42 1012.31 1012.08 1011.81 1011.55 1011.38 1011.33 1011.41 1011.59 1011.82 1012.06 1012.27 1012.42 1012.52 1012.58 1012.64 1012.71 1012.82 1012.97 1013.14 1013.32 1013.50 1013.65 1013.77 1013.87 1013.96 1014.05 1014.14 1014.23 1014.32 1014.39 1014.44
1011.71 1012.88 1013.87 1014.56 1014.90 1014.86 1014.51 1013.94 1013.28 1012.67 1012.22 1011.97 1011.93 1012.05 1012.25 1012.44 1012.55 1012.53 1012.39 1012.16 1011.92 1011.72 1011.61 1011.62 1011.75 1011.95 1012.17 1012.38 1012.54 1012.64 1012.68 1012.71 1012.74 1012.81 1012.91 1013.06 1013.23 1013.40 1013.56 1013.69 1013.81 1013.93 1014.04 1014.18 1014.32 1014.48 1014.62 1014.74 1014.83
1012.21 1013.22 1014.02 1014.51 1014.66 1014.50 1014.10 1013.55 1012.99 1012.51 1012.20 1012.09 1012.15 1012.32 1012.53 1012.69 1012.75 1012.68 1012.52 1012.30 1012.10 1011.96 1011.92 1012.00 1012.16 1012.37 1012.58 1012.75 1012.85 1012.88 1012.88 1012.87 1012.88 1012.94 1013.05 1013.20 1013.37 1013.54 1013.69 1013.81 1013.92 1014.04 1014.18 1014.34 1014.54 1014.75 1014.94 1015.11 1015.21
1012.67 1013.49 1014.07 1014.35 1014.35 1014.09 1013.66 1013.16 1012.70 1012.37 1012.21 1012.21 1012.35 1012.56 1012.76 1012.88 1012.90 1012.81 1012.64 1012.45 1012.29 1012.22 1012.26 1012.39 1012.59 1012.80 1012.99 1013.11 1013.16 1013.15 1013.11 1013.08 1013.09 1013.16 1013.29 1013.45 1013.63 1013.79 1013.92 1014.02 1014.11 1014.22 1014.35 1014.54 1014.76 1015.01 1015.24 1015.43 1015.56
1013.03 1013.64 1014.00 1014.10 1013.94 1013.60 1013.17 1012.73 1012.37 1012.17 1012.13 1012.24 1012.44 1012.67 1012.86 1012.96 1012.95 1012.84 1012.69 1012.54 1012.45 1012.45 1012.55 1012.73 1012.95 1013.16 1013.33 1013.42 1013.43 1013.40 1013.35 1013.33 1013.37 1013.47 1013.63 1013.81 1013.99 1014.13 1014.24 1014.31 1014.36 1014.44 1014.56 1014.74 1014.97 1015.23 1015.49 1015.70 1015.84
1013.25 1013.67 1013.82 1013.74 1013.46 1013.06 1012.62 1012.24 1011.97 1011.87 1011.93 1012.11 1012.36 1012.60 1012.79 1012.88 1012.86 1012.77 1012.65 1012.55 1012.52 1012.59 1012.74 1012.96 1013.20 1013.41 1013.55 1013.62 1013.63 1013.60 1013.58 1013.60 1013.68 1013.83 1014.02 1014.23 1014.41 1014.55 1014.62 1014.65 1014.66 1014.70 1014.79 1014.95 1015.17 1015.43 1015.70 1015.92 1016.08
1013.33 1013.56 1013.55 1013.32 1012.94 1012.50 1012.07 1011.73 1011.53 1011.51 1011.63 1011.85 1012.12 1012.38 1012.56 1012.66 1012.66 1012.60 1012.53 1012.49 1012.52 1012.63 1012.82 1013.06 1013.30 1013.50 1013.64 1013.70 1013.72 1013.73 1013.75 1013.83 1013.97 1014.18 1014.42 1014.65 1014.84 1014.96 1015.01 1015.01 1014.98 1014.98 1015.04 1015.17 1015.37 1015.63 1015.90 1016.14 1016.31
1013.31 1013.40 1013.25 1012.92 1012.48 1012.00 1011.58 1011.28 1011.12 1011.14 1011.29 1011.53 1011.80 1012.06 1012.25 1012.35 1012.39 1012.37 1012.35 1012.36 1012.44 1012.59 1012.79 1013.03 1013.25 1013.44 1013.57 1013.65 1013.70 1013.75 1013.83 1013.97 1014.19 1014.45 1014.73 1014.99 1015.20 1015.32 1015.36 1015.33 1015.29 1015.27 1015.31 1015.43 1015.62 1015.88 1016.15 1016.39 1016.57
1013.28 1013.27 1013.04 1012.64 1012.16 1011.68 1011.27 1010.98 1010.84 1010.86 1011.00 1011.23 1011.48 1011.72 1011.91 1012.03 1012.09 1012.12 1012.14 1012.20 1012.31 1012.47 1012.67 1012.89 1013.09 1013.27 1013.40 1013.50 1013.58 1013.67 1013.81 1014.01 1014.28 1014.59 1014.90 1015.19 1015.41 1015.55 1015.60 1015.59 1015.56 1015.55 1015.60 1015.73 1015.94 1016.19 1016.47 1016.72 1016.92
1013.36 1013.28 1013.00 1012.58 1012.10 1011.62 1011.22 1010.93 1010.78 1010.76 1010.86 1011.03 1011.23 1011.43 1011.60 1011.72 1011.80 1011.86 1011.92 1012.00 1012.12 1012.28 1012.47 1012.67 1012.86 1013.02 1013.16 1013.28 1013.39 1013.53 1013.71 1013.95 1014.24 1014.57 1014.90 1015.20 1015.44 1015.61 1015.70 1015.74 1015.77 1015.82 1015.92 1016.09 1016.32 1016.59 1016.88 1017.14 1017.35
1013.58 1013.47 1013.18 1012.77 1012.32 1011.86 1011.47 1011.16 1010.96 1010.88 1010.88 1010.96 1011.08 1011.21 1011.33 1011.44 1011.52 1011.59 1011.66 1011.76 1011.88 1012.03 1012.20 1012.39 1012.57 1012.75 1012.90 1013.04 1013.19 1013.36 1013.56 1013.81 1014.10 1014.42 1014.75 1015.05 1015.31 1015.51 1015.67 1015.79 1015.91 1016.05 1016.23 1016.46 1016.74 1017.04 1017.34 1017.61 1017.83
1013.98 1013.86 1013.58 1013.21 1012.79 1012.36 1011.97 1011.63 1011.36 1011.18 1011.06 1011.01 1011.01 1011.04 1011.09 1011.14 1011.20 1011.26 1011.33 1011.42 1011.54 1011.69 1011.86 1012.05 1012.25 1012.45 1012.65 1012.83 1013.02 1013.21 1013.42 1013.65 1013.91 1014.20 1014.48 1014.77 1015.04 1015.29 1015.52 1015.74 1015.96 1016.21 1016.49 1016.80 1017.14 1017.48 1017.80 1018.08 1018.30
1014.47 1014.36 1014.13 1013.81 1013.44 1013.04 1012.65 1012.26 1011.91 1011.60 1011.34 1011.13 1010.98 1010.88 1010.82 1010.80 1010.80 1010.83 1010.88 1010.96 1011.08 1011.23 1011.41 1011.64 1011.88 1012.14 1012.39 1012.64 1012.87 1013.09 1013.30 1013.51 1013.72 1013.95 1014.19 1014.44 1014.71 1014.99 1015.28 1015.60 1015.93 1016.29 1016.67 1017.06 1017.46 1017.83 1018.18 1018.47 1018.70
1014.95 1014.87 1014.69 1014.44 1014.14 1013.78 1013.39 1012.96 1012.51 1012.06 1011.64 1011.26 1010.94 1010.69 1010.50 1010.38 1010.31 1010.28 1010.30 1010.36 1010.47 1010.63 1010.84 1011.11 1011.42 1011.76 1012.11 1012.44 1012.74 1013.00 1013.21 1013.39 1013.56 1013.72 1013.90 1014.11 1014.36 1014.66 1015.01 1015.40 1015.82 1016.27 1016.73 1017.19 1017.63 1018.04 1018.41 1018.72 1018.97
1015.29 1015.25 1015.16 1015.00 1014.77 1014.47 1014.08 1013.61 1013.07 1012.49 1011.91 1011.36 1010.87 1010.46 1010.14 1009.90 1009.74 1009.64 1009.61 1009.63 1009.72 1009.89 1010.13 1010.46 1010.85 1011.29 1011.74 1012.17 1012.55 1012.87 1013.11 1013.29 1013.42 1013.53 1013.66 1013.83 1014.06 1014.36 1014.73 1015.16 1015.65 1016.15 1016.66 1017.16 1017.64 1018.07 1018.45 1018.78 1019.06
1015.39 1015.42 1015.43 1015.39 1015.26 1015.03 1014.68 1014.18 1013.57 1012.87 1012.14 1011.43 1010.78 1010.22 1009.76 1009.41 1009.15 1008.97 1008.87 1008.84 1008.90 1009.05 1009.32 1009.69 1010.15 1010.68 1011.24 1011.78 1012.26 1012.65 1012.94 1013.14 1013.26 1013.35 1013.45 1013.58 1013.79 1014.08 1014.46 1014.92 1015.42 1015.95 1016.48 1016.99 1017.47 1017.91 1018.31 1018.67 1018.98
1015.20 1015.34 1015.48 1015.57 1015.58 1015.44 1015.14 1014.65 1013.99 1013.20 1012.36 1011.52 1010.73 1010.04 1009.46 1009.00 1008.64 1008.37 1008.19 1008.09 1008.09 1008.21 1008.46 1008.84 1009.34 1009.93 1010.58 1011.21 1011.79 1012.27 1012.63 1012.88 1013.03 1013.13 1013.22 1013.35 1013.55 1013.84 1014.21 1014.66 1015.16 1015.68 1016.19 1016.69 1017.17 1017.61 1018.02 1018.41 1018.77
1014.78 1015.04 1015.34 1015.60 1015.75 1015.73 1015.50 1015.04 1014.36 1013.52 1012.60 1011.67 1010.78 1009.99 1009.32 1008.76 1008.31 1007.96 1007.69 1007.50 1007.42 1007.46 1007.65 1007.99 1008.48 1009.09 1009.77 1010.47 1011.12 1011.68 1012.12 1012.44 1012.65 1012.80 1012.92 1013.08 1013.29 1013.58 1013.95 1014.39 1014.87 1015.36 1015.85 1016.33 1016.78 1017.22 1017.64 1018.05 1018.46
1014.23 1014.64 1015.10 1015.54 1015.85 1015.96 1015.81 1015.39 1014.73 1013.86 1012.90 1011.91 1010.96 1010.11 1009.38 1008.76 1008.25 1007.82 1007.46 1007.18 1006.99 1006.92 1007.00 1007.25 1007.67 1008.23 1008.89 1009.60 1010.28 1010.89 1011.40 1011.79 1012.07 1012.29 1012.48 1012.69 1012.94 1013.26 1013.64 1014.08 1014.54 1015.02 1015.48 1015.93 1016.36 1016.79 1017.22 1017.66 1018.11
1013.68 1014.24 1014.88 1015.48 1015.94 1016.17 1016.11 1015.74 1015.09 1014.23 1013.25 1012.24 1011.28 1010.41 1009.65 1009.01 1008.46 1007.98 1007.55 1007.17 1006.87 1006.67 1006.61 1006.72 1007.01 1007.47 1008.04 1008.68 1009.34 1009.96 1010.50 1010.95 1011.30 1011.60 1011.87 1012.15 1012.47 1012.84 1013.25 1013.71 1014.17 1014.64 1015.09 1015.52 1015.94 1016.36 1016.80 1017.25 1017.73
1013.26 1013.96 1014.75 1015.49 1016.07 1016.39 1016.40 1016.07 1015.44 1014.60 1013.63 1012.63 1011.68 1010.83 1010.10 1009.47 1008.92 1008.42 1007.94 1007.49 1007.08 1006.75 1006.54 1006.48 1006.60 1006.89 1007.32 1007.85 1008.42 1008.99 1009.51 1009.97 1010.38 1010.74 1011.08 1011.44 1011.84 1012.27 1012.74 1013.23 1013.73 1014.21 1014.66 1015.10 1015.52 1015.94 1016.38 1016.84 1017.34
1013.05 1013.86 1014.75 1015.58 1016.23 1016.60 1016.63 1016.33 1015.73 1014.90 1013.96 1013.00 1012.10 1011.31 1010.63 1010.05 1009.54 1009.06 1008.57 1008.08 1007.59 1007.15 1006.80 1006.57 1006.50 1006.60 1006.84 1007.19 1007.62 1008.08 1008.53 1008.96 1009.37 1009.76 1010.16 1010.58 1011.04 1011.55 1012.08 1012.63 1013.17 1013.69 1014.18 1014.63 1015.06 1015.49 1015.94 1016.41 1016.91
1013.08 1013.95 1014.87 1015.72 1016.38 1016.74 1016.77 1016.46 1015.87 1015.07 1014.17 1013.27 1012.45 1011.74 1011.16 1010.66 1010.23 1009.80 1009.34 1008.84 1008.32 1007.80 1007.34 1006.96 1006.71 1006.61 1006.65 1006.80 1007.04 1007.34 1007.67 1008.01 1008.36 1008.73 1009.14 1009.60 1010.12 1010.68 1011.28 1011.89 1012.49 1013.06 1013.59 1014.08 1014.54 1014.99 1015.44 1015.92 1016.41
1013.32 1014.18 1015.07 1015.86 1016.46 1016.76 1016.74 1016.41 1015.82 1015.05 1014.21 1013.40 1012.67 1012.07 1011.60 1011.21 1010.87 1010.52 1010.13 1009.67 1009.16 1008.61 1008.07 1007.58 1007.19 1006.91 1006.75 1006.70 1006.74 1006.84 1007.00 1007.20 1007.45 1007.75 1008.12 1008.57 1009.10 1009.70 1010.35 1011.02 1011.68 1012.31 1012.89 1013.42 1013.92 1014.39 1014.85 1015.33 1015.83
1013.69 1014.47 1015.25 1015.93 1016.40 1016.60 1016.51 1016.14 1015.55 1014.83 1014.07 1013.36 1012.75 1012.27 1011.92 1011.65 1011.41 1011.16 1010.85 1010.45 1009.97 1009.44 1008.87 1008.33 1007.84 1007.43 1007.10 1006.86 1006.69 1006.60 1006.56 1006.58 1006.68 1006.86 1007.15 1007.55 1008.05 1008.65 1009.32 1010.02 1010.73 1011.41 1012.04 1012.63 1013.16 1013.66 1014.14 1014.63 1015.13
1014.11 1014.74 1015.36 1015.86 1016.17 1016.24 1016.06 1015.66 1015.10 1014.44 1013.79 1013.20 1012.72 1012.37 1012.13 1011.97 1011.84 1011.67 1011.43 1011.10 1010.67 1010.18 1009.63 1009.07 1008.53 1008.03 1007.58 1007.19 1006.84 1006.55 1006.32 1006.15 1006.07 1006.10 1006.27 1006.57 1007.01 1007.57 1008.23 1008.95 1009.68 1010.40 1011.08 1011.70 1012.27 1012.80 1013.31 1013.81 1014.32
Thickness
5783 5783 5780 5767 5742 5718 5714 5722 5729 5732 5735 5741 5744 5740 5734 5729 5726 5724 5741 5749 5751 5751 5752 5753 5754 5755 5756 5756 5756 5757 5757 5757 5758 5758 5759 5759 5760 5760 5761 5762 5762 5762 5763 5763 5763 5764 5764 5764 5764
5782 5780 5770 5750 5721 5703 5710 5724 5728 5734 5739 5743 5742 5739 5733 5731 5736 5738 5742 5747 5749 5750 5750 5751 5752 5753 5753 5753 5754 5754 5754 5754 5754 5755 5755 5756 5756 5757 5758 5758 5758 5759 5759 5760 5760 5760 5760 5761 5761
5781 5776 5753 5732 5714 5706 5714 5727 5731 5738 5743 5742 5736 5736 5733 5731 5737 5739 5744 5747 5747 5747 5748 5749 5749 5750 5750 5750 5750 5750 5750 5751 5751 5751 5752 5752 5753 5753 5754 5754 5755 5755 5755 5756 5756 5756 5757 5757 5758
5773 5759 5743 5723 5714 5719 5724 5730 5734 5736 5739 5740 5735 5729 5733 5739 5740 5742 5745 5745 5745 5745 5745 5746 5746 5747 5747 5747 5747 5747 5747 5747 5747 5748 5748 5749 5749 5749 5750 5750 5751 5751 5752 5752 5752 5752 5753 5753 5754
5765 5744 5723 5710 5715 5724 5730 5734 5736 5733 5733 5734 5732 5725 5727 5737 5742 5743 5743 5743 5742 5742 5742 5742 5743 5743 5743 5743 5743 5743 5743 5744 5744 5744 5744 5745 5745 5745 5746 5746 5747 5747 5748 5748 5748 5748 5749 5749 5750
5746 5732 5708 5702 5713 5724 5731 5736 5735 5732 5731 5732 5729 5723 5725 5735 5738 5739 5740 5739 5739 5739 5739 5739 5739 5739 5739 5739 5739 5740 5740 5740 5740 5740 5740 5741 5741 5741 5741 5742 5742 5743 5743 5744 5744 5745 5745 5745 5747
5737 5721 5708 5708 5710 5718 5729 5736 5732 5729 5728 5730 5732 5721 5723 5731 5735 5737 5737 5736 5736 5736 5735 5735 5735 5735 5735 5735 5735 5735 5736 5736 5736 5736 5736 5736 5736 5737 5737 5737 5738 5738 5739 5739 5740 5740 5741 5741 5743
5742 5722 5710 5707 5710 5716 5731 5734 5735 5732 5729 5736 5734 5721 5720 5730 5734 5734 5732 5731 5731 5731 5731 5731 5731 5731 5731 5731 5731 5731 5731 5731 5731 5731 5732 5732 5732 5732 5732 5733 5734 5734 5734 5734 5735 5736 5736 5737 5738
5744 5715 5704 5710 5713 5719 5731 5730 5733 5737 5732 5732 5733 5731 5732 5734 5732 5728 5726 5725 5726 5727 5727 5728 5728 5727 5727 5728 5727 5727 5727 5727 5727 5727 5727 5727 5727 5727 5727 5728 5729 5729 5729 5730 5730 5730 5731 5731 5732
5732 5709 5714 5724 5725 5725 5729 5729 5729 5728 5724 5723 5726 5729 5732 5730 5726 5723 5721 5720 5721 5722 5724 5724 5724 5724 5724 5724 5724 5723 5723 5723 5723 5722 5722 5722 5722 5722 5722 5723 5724 5724 5724 5724 5724 5725 5725 5725 5725
5731 5718 5725 5729 5732 5731 5728 5728 5730 5722 5717 5721 5723 5724 5725 5724 5722 5720 5720 5720 5720 5721 5722 5722 5722 5721 5721 5720 5720 5720 5719 5719 5719 5718 5718 5718 5718 5717 5717 5718 5718 5718 5719 5719 5719 5719 5719 5719 5719
5728 5728 5729 5730 5734 5731 5727 5727 5724 5722 5723 5731 5731 5728 5724 5721 5719 5719 5718 5719 5719 5719 5719 5720 5719 5718 5717 5717 5716 5716 5715 5715 5715 5714 5714 5714 5713 5712 5712 5712 5712 5713 5713 5713 5713 5712 5712 5713 5713
5726 5726 5731 5731 5732 5729 5727 5723 5722 5722 5728 5730 5728 5724 5721 5719 5718 5719 5719 5719 5718 5717 5717 5717 5717 5715 5714 5713 5712 5712 5711 5711 5710 5710 5710 5709 5708 5708 5707 5707 5707 5707 5707 5707 5707 5707 5707 5707 5707
5726 5726 5726 5728 5727 5727 5722 5720 5719 5720 5725 5724 5722 5719 5718 5718 5718 5717 5716 5715 5715 5715 5715 5715 5714 5713 5711 5710 5709 5708 5707 5707 5706 5706 5706 5705 5704 5703 5703 5702 5702 5702 5702 5702 5701 5701 5701 5700 5700
5727 5720 5718 5721 5722 5722 5720 5710 5713 5720 5720 5717 5716 5716 5716 5715 5716 5716 5716 5715 5715 5714 5714 5713 5713 5711 5709 5707 5706 5704 5704 5703 5702 5702 5702 5701 5701 5700 5699 5698 5697 5697 5697 5696 5696 5695 5695 5695 5694
5717 5706 5699 5711 5717 5718 5711 5697 5713 5718 5716 5712 5712 5712 5712 5713 5714 5715 5716 5715 5715 5713 5712 5711 5711 5708 5706 5704 5703 5701 5700 5700 5699 5699 5698 5698 5697 5696 5695 5694 5693 5692 5692 5691 5690 5689 5688 5687 5687
5697 5689 5691 5701 5712 5712 5706 5698 5711 5715 5713 5709 5709 5709 5709 5710 5712 5713 5714 5714 5713 5712 5710 5708 5707 5705 5703 5701 5700 5698 5697 5696 5695 5695 5694 5694 5693 5692 5691 5690 5688 5687 5687 5685 5685 5683 5682 5680 5680
5686 5688 5689 5692 5704 5704 5698 5698 5707 5711 5710 5708 5707 5706 5707 5708 5710 5713 5713 5712 5711 5709 5708 5706 5704 5702 5700 5698 5695 5694 5693 5692 5691 5691 5690 5690 5689 5688 5687 5685 5684 5683 5681 5680 5678 5676 5675 5674 5674
5696 5691 5687 5692 5703 5698 5694 5695 5702 5707 5706 5705 5703 5703 5704 5707 5711 5711 5711 5710 5708 5706 5704 5702 5700 5699 5696 5693 5691 5688 5687 5686 5687 5687 5687 5686 5685 5684 5683 5681 5679 5678 5676 5674 5673 5671 5669 5667 5667
5694 5687 5685 5692 5700 5696 5691 5692 5701 5704 5704 5706 5705 5704 5704 5705 5706 5707 5707 5706 5705 5703 5701 5699 5698 5696 5694 5692 5690 5687 5684 5683 5683 5683 5682 5682 5681 5680 5679 5677 5675 5673 5671 5669 5667 5666 5663 5662 5661
5690 5685 5686 5686 5692 5693 5689 5685 5693 5700 5703 5705 5705 5706 5706 5706 5705 5705 5704 5703 5702 5701 5700 5699 5696 5693 5691 5689 5686 5683 5680 5679 5677 5677 5677 5677 5677 5676 5675 5673 5671 5668 5667 5664 5663 5661 5659 5656 5654
5684 5695 5692 5688 5678 5671 5679 5664 5682 5689 5694 5699 5700 5701 5703 5704 5705 5704 5703 5701 5701 5700 5699 5697 5694 5691 5688 5686 5683 5680 5677 5674 5674 5673 5673 5673 5672 5672 5671 5669 5667 5665 5663 5660 5659 5657 5655 5653 5650
5692 5696 5690 5685 5675 5666 5667 5661 5670 5683 5687 5692 5696 5699 5702 5703 5703 5702 5702 5702 5701 5699 5696 5694 5691 5688 5685 5682 5680 5677 5674 5673 5671 5670 5669 5669 5668 5667 5666 5665 5663 5661 5659 5657 5655 5653 5651 5649 5646
5694 5686 5678 5669 5662 5652 5659 5656 5660 5673 5683 5689 5694 5697 5699 5700 5700 5701 5701 5700 5697 5695 5692 5690 5687 5684 5682 5679 5676 5674 5671 5669 5667 5665 5664 5664 5663 5662 5662 5661 5659 5657 5655 5653 5651 5649 5647 5645 5643
5685 5666 5649 5647 5640 5644 5658 5655 5661 5681 5686 5688 5690 5693 5696 5696 5696 5696 5696 5695 5693 5691 5689 5686 5683 5680 5678 5675 5673 5671 5669 5667 5665 5663 5662 5660 5659 5658 5658 5657 5655 5654 5652 5650 5647 5645 5643 5641 5639
5676 5665 5645 5637 5634 5640 5651 5650 5668 5684 5686 5687 5688 5690 5691 5691 5691 5692 5692 5692 5690 5688 5685 5682 5680 5677 5675 5673 5671 5669 5667 5664 5663 5662 5660 5658 5658 5657 5656 5654 5652 5650 5648 5646 5644 5641 5639 5638 5636
5670 5660 5661 5644 5639 5635 5641 5652 5668 5682 5681 5682 5683 5684 5685 5686 5687 5687 5688 5687 5686 5684 5681 5679 5677 5675 5672 5670 5668 5666 5664 5662 5661 5659 5658 5656 5655 5654 5653 5651 5649 5647 5645 5643 5640 5637 5635 5634 5632
5675 5661 5648 5640 5631 5628 5637 5644 5651 5665 5670 5673 5675 5676 5680 5682 5683 5683 5682 5682 5681 5680 5678 5675 5673 5672 5670 5667 5665 5664 5662 5660 5658 5656 5654 5653 5652 5651 5649 5647 5645 5643 5641 5638 5636 5633 5631 5630 5628
5661 5655 5644 5634 5632 5624 5625 5638 5661 5661 5663 5665 5668 5671 5673 5676 5677 5677 5677 5677 5676 5674 5672 5669 5668 5666 5664 5663 5661 5659 5658 5656 5654 5652 5651 5650 5649 5647 5645 5644 5641 5638 5636 5634 5632 5629 5627 5625 5624
5664 5655 5642 5633 5627 5623 5621 5634 5661 5658 5659 5660 5661 5664 5667 5669 5670 5670 5670 5669 5668 5667 5665 5663 5663 5661 5660 5659 5657 5655 5653 5651 5649 5648 5647 5646 5644 5643 5641 5639 5636 5634 5632 5630 5627 5625 5623 5621 5619